Simultaneous Nadir Overpasses (SNOs) Predictions

Prediction of SNOs between GOES-17 and NOAA-21 Satellite Orbit:

Table of predicted SNOs for the next 14.0 days since TLE Epoch: 6/8/2024
Index Date Time (GOES-17) GOES-17 Lat,Lon NOAA-21 Lat,Lon Distance(km) Time Diff (sec)
1 06/08/2024 20:23:02 0.02,-104.71 0.08,-104.31 45.41 80
2 06/11/2024 08:23:29 0.01,-104.71 0.08,-105.05 39.43 80
3 06/12/2024 08:07:25 0.02,-104.71 -0.92,-100.52 476.85 80
4 06/13/2024 20:26:44 -0.02,-104.71 -0.28,-105.83 127.62 80
5 06/14/2024 20:10:40 -0.02,-104.71 0.72,-101.30 388.82 80
6 06/16/2024 08:29:50 0.02,-104.72 0.41,-106.58 211.82 80
7 06/17/2024 08:13:47 0.02,-104.72 -0.60,-102.05 304.50 80
8 06/18/2024 20:33:05 -0.01,-104.72 -0.59,-107.36 300.44 80
9 06/19/2024 20:17:02 -0.01,-104.72 0.42,-102.83 215.63 80
10 06/21/2024 08:36:11 0.00,-104.72 0.75,-108.10 385.57 80
